Regional Weather Roundup
Issued by NWS

Home | Current Version | Previous Version | Text Only | Print | Product List | Glossary On
Versions: 1 2 3 4 5 6 7 8 9 10 11 12 13 14 15 16 17 18 19 20 21 22 23 24 25 26 27
000
ASUS44 KBMX 201210
RWRAL

ALABAMA REGIONAL WEATHER ROUNDUP
NATIONAL WEATHER SERVICE BIRMINGHAM AL
600 AM CST FRI JAN 20 2017

NOTE: "FAIR" INDICATES FEW OR NO CLOUDS BELOW 12,000 FEET
WITH NO SIGNIFICANT WEATHER AND/OR OBSTRUCTIONS TO VISIBILITY.

THE REMARK "TC" DENOTES TEMPERATURE IN DEGREES CELSIUS.

ALZ001>011-014-016>018-020-201300-
NORTH ALABAMA

CITY           SKY/WX    TMP DP  RH WIND       PRES   REMARKS
MUSCLE SHOALS  MOCLDY    55  52  89 SW6       29.79R
6HR MIN TEMP:  53; 6HR MAX TEMP:  58;

HUNTSVILLE     CLOUDY    60  57  89 SW6       29.79S
6HR MIN TEMP:  58; 6HR MAX TEMP:  61;

DECATUR        CLOUDY    58  57  97 SW6       29.79S
6HR MIN TEMP:  56; 6HR MAX TEMP:  59;

HALEYVILLE     CLOUDY    55  54  96 S6        29.81R
6HR MIN TEMP:  55; 6HR MAX TEMP:  57; 6HR PCP: TRACE;

GADSDEN        PTCLDY    57  56  96 W6        29.81S
6HR MIN TEMP:  57; 6HR MAX TEMP:  63;

$$

ALZ012-013-022-023-030>036-040>044-201300-
WEST CENTRAL ALABAMA

CITY           SKY/WX    TMP DP  RH WIND       PRES   REMARKS
TUSCALOOSA     CLOUDY    61  60  97 S5        29.81S
6HR MIN TEMP:  58; 6HR MAX TEMP:  62;

$$

ALZ015-024>027-033>036-040>044-201300-
CENTRAL ALABAMA

CITY           SKY/WX    TMP DP  RH WIND       PRES   REMARKS
BIRMINGHAM     CLOUDY    60  59  96 SW5       29.84R
6HR MIN TEMP:  60; 6HR MAX TEMP:  63;

MONTGOMERY     CLOUDY    65  60  84 S3        29.83R
6HR MIN TEMP:  61; 6HR MAX TEMP:  65;

SHELBY CO ARPT CLOUDY    62  61  96 SW5       29.83R
6HR MIN TEMP:  62; 6HR MAX TEMP:  64;

MAXWELL AFB    CLOUDY    64  63  98 CALM      29.83R
6HR MIN TEMP:  58; 6HR MAX TEMP:  64;

GREENVILLE     CLOUDY    63  60  90 S7        29.83S
6HR MIN TEMP:  62; 6HR MAX TEMP:  64;

$$

ALZ019-021-028-029-037-038-045>048-201300-
EAST CENTRAL ALABAMA

CITY           SKY/WX    TMP DP  RH WIND       PRES   REMARKS
ANNISTON       CLOUDY    62  60  93 SW7       29.82R
6HR MIN TEMP:  62; 6HR MAX TEMP:  65; 6HR PCP: TRACE;

ALEXANDER CITY CLOUDY    65  63  93 SW6       29.84R
6HR MIN TEMP:  65; 6HR MAX TEMP:  69;

AUBURN         CLOUDY    63  61  93 SW9       29.86R
6HR MIN TEMP:  63; 6HR MAX TEMP:  64;

$$

ALZ051>064-201300-
SOUTHWEST ALABAMA

CITY           SKY/WX    TMP DP  RH WIND       PRES   REMARKS
MOBILE         MOCLDY    62  61  96 S5        29.84R
6HR MIN TEMP:  61; 6HR MAX TEMP:  66;

BROOKLEY FIELD FOG       66  66 100 CALM      29.84S VSB 1/2
6HR MIN TEMP:  63; 6HR MAX TEMP:  67;

EVERGREEN      CLOUDY    63  62  97 CALM      29.85R FOG
6HR MIN TEMP:  62; 6HR MAX TEMP:  64;

$$

ALZ049-050-065>069-201300-
SOUTHEAST ALABAMA

CITY           SKY/WX    TMP DP  RH WIND       PRES   REMARKS
DOTHAN         CLOUDY    63  63 100 SW10      29.90R
6HR MIN TEMP:  63; 6HR MAX TEMP:  67; 6HR PCP: TRACE;

OZARK          CLOUDY    64  63  94 SW8       29.86R
TROY           CLOUDY    63  63 100 S7        29.86R
6HR MIN TEMP:  61; 6HR MAX TEMP:  64;

EUFAULA        CLOUDY    66  62  87 SW3       29.85R
6HR MIN TEMP:  65; 6HR MAX TEMP:  67; 6HR PCP:  0.01;

$$




USA.gov is the U.S. government's official web portal to all federal, state and local government web resources and services.